Regional Weather Roundup
Issued by NWS

Home | Current Version | Previous Version | Text Only | Print | Product List | Glossary Off
Versions: 1 2 3 4 5 6 7 8 9 10 11 12 13 14 15 16 17 18 19 20 21 22 23 24 25 26 27 28 29 30 31 32 33 34 35 36 37 38 39 40 41

000
ASUS43 KDMX 272207
RWRIA

WEATHER ROUNDUP FOR IOWA
NATIONAL WEATHER SERVICE DES MOINES IA
400 PM CST SAT DEC 27 2014

NOTE: "FAIR" INDICATES FEW OR NO CLOUDS BELOW 12,000 FEET WITH NO
SIGNIFICANT WEATHER AND/OR OBSTRUCTIONS TO VISIBILITY.

* - THESE STATIONS ARE NOT NWS STATIONS...THUS NOT UNDER NWS
QUALITY CONTROL.  THEY ALSO DO NOT REPORT WEATHER SUCH
AS PRECIPITATION OR FOG.

IAZ001>003-012>014-020>022-031>034-043>046-272300-
   NORTHWEST IOWA

CITY           SKY/WX    TMP DP  RH WIND       PRES   REMARKS
CARROLL *      CLEAR     23  18  80 W10       30.19R WCI  12
CHEROKEE *     CLEAR     18  14  86 W9        30.19R WCI   6
DENISON *      CLEAR     23  14  68 W9        30.18R WCI  13
LE MARS *      CLEAR     18  12  79 W5        30.20S WCI  11
ORANGE CITY *  CLEAR     16  10  79 W7        30.16S WCI   6
SHELDON *      CLEAR     14   9  79 W12       30.15R WCI   0
SIOUX CITY     CLEAR     21  12  68 W7        30.22R WCI  12
SPENCER        CLEAR     18  11  74 W10       30.15R WCI   6
STORM LAKE *   CLEAR     16  12  86 W10       30.17R WCI   3
$$

IAZ055>058-069>071-079>083-090>094-272300-
   SOUTHWEST IOWA

CITY           SKY/WX    TMP DP  RH WIND       PRES   REMARKS
ATLANTIC *     MOCLDY    27  19  74 NW7       30.21S WCI  19
AUDUBON *      CLEAR     27  18  69 W7        30.20R WCI  19
CLARINDA *     CLOUDY    28  21  74 W9        30.26R WCI  20
COUNCIL BLFS * CLEAR     25  19  80 NW8       30.21S WCI  16
CRESTON *      CLOUDY    25  21  86 W14       30.21R WCI  13
HARLAN  *      CLEAR     25  19  80 W9        30.25R WCI  15
LAMONI         CLOUDY    27  21  78 NW14      30.21R WCI  16
RED OAK *      PTCLDY    28  21  74 W6        30.24R WCI  22
SHENANDOAH *   PTCLDY    28  19  69 W9        30.26R WCI  20
$$

IAZ047>049-059>061-072>074-084-272300-
   CENTRAL IOWA

CITY           SKY/WX    TMP DP  RH WIND       PRES   REMARKS
AMES           PTCLDY    25  18  74 W12       30.19R WCI  14
ANKENY *       CLOUDY    27  21  80 NW9       30.20R WCI  17
CHARITON *     CLOUDY    28  23  80 NW10      30.19R WCI  19
DES MOINES     MOCLDY    28  19  69 NW13      30.20R WCI  17
GRINNELL*      CLOUDY    28  23  80 NW13      30.17S WCI  18
KNOXVILLE *    CLOUDY    28  21  74 NW13G18   30.17S WCI  18
MARSHALLTOWN   MOCLDY    26  20  77 W10       30.16S WCI  16
PELLA *        CLOUDY    29  22  77 W13       30.19S WCI  18
PERRY *        MOCLDY    27  21  80 W10       30.20S WCI  17
$$

IAZ004>006-015-016-023>025-035-036-272300-
   NORTH CENTRAL IOWA

CITY           SKY/WX    TMP DP  RH WIND       PRES   REMARKS
ALGONA *       CLEAR     19  14  79 W7        30.16S WCI  10
CLARION *      CLEAR     19  14  79 W10       30.17R WCI   8
ESTHERVILLE    CLEAR     19  11  70 W9        30.13S WCI   8
FORT DODGE *   CLEAR     19  12  73 W7        30.19R WCI  10
MASON CITY     CLEAR     18  10  71 W12       30.15R WCI   5
FOREST CITY *  CLEAR     19  10  68 NW10      30.14R WCI   8
IOWA FALLS *     N/A     23  16  74 W17       30.17R WCI   9
$$

IAZ007>011-017>019-026>030-037>042-050>054-066-272300-
   NORTHEAST IOWA

CITY           SKY/WX    TMP DP  RH WIND       PRES   REMARKS
CEDAR RAPIDS   CLOUDY    27  23  85 W17       30.14R WCI  14
CHARLES CITY * PTCLDY    21  18  86 W13       30.14R WCI   9
CLINTON *      CLOUDY    30  25  80 W13       30.13S WCI  20
DECORAH *      CLOUDY    23  19  86 W9        30.10R WCI  13
DUBUQUE        CLOUDY    31  25  78 W16       30.09R WCI  20
MONTICELLO *   CLOUDY    30  27  86 W16G23    30.12R WCI  19
OELWEIN *      CLOUDY    25  21  86 NW16      30.13R WCI  12
WATERLOO       CLOUDY    24  19  81 W9        30.15R WCI  14
$$

IAZ064-065-067-068-078-272300-
   EAST CENTRAL IOWA

CITY           SKY/WX    TMP DP  RH WIND       PRES   REMARKS
DAVENPORT      CLOUDY    32  25  75 W15       30.12S WCI  22
IOWA CITY      CLOUDY    30  23  75 NW12      30.17R WCI  20
MT. PLEASANT * CLOUDY    32  25  74 W10       30.17R WCI  24
MUSCATINE *    CLOUDY    34  25  69 W16       30.17R WCI  23
QUAD CITIES    CLOUDY    33  24  69 W12       30.13R WCI  24
$$

IAZ062-063-075>077-085>089-095>099-272300-
   SOUTHEAST IOWA

CITY           SKY/WX    TMP DP  RH WIND       PRES   REMARKS
BURLINGTON     CLOUDY    33  26  75 NW10      30.16R WCI  25
FAIRFIELD *    CLOUDY    30  25  80 NW15      30.17S WCI  19
FORT MADISON * CLOUDY    34  28  80 NW7       30.18R WCI  28
KEOKUK *       CLOUDY    34  25  69 NW7       30.17R WCI  28
OSKALOOSA *    CLOUDY    28  23  80 NW14      30.18R WCI  17
CENTERVILLE *  CLOUDY    30  25  80 W12       30.19S WCI  21
OTTUMWA        CLOUDY    29  22  75 NW10      30.17S WCI  20
WASHINGTON *   CLOUDY    30  27  86 NW14G20   30.17R WCI  20
$$

ABBREVIATIONS USED IN REMARKS
   TC - TEMPERATURES IN CELSIUS
  WCI - WIND CHILL INDEX
   HX - HEAT INDEX
  VSB - VISIBILITY
$$




USA.gov is the U.S. government's official web portal to all federal, state and local government web resources and services.